CZ-4C R/B - Orbit

View from above orbital plane
View from above orbital plane
View from above satellite
View from above satellite

Ground track
Ground track

The orbit data is extracted from the following two-line orbital elements,

1 32290U 07055B   13139.76387633  .00005201  00000-0  23609-3 0  5855
2 32290 097.6218 206.9849 0097593 338.0982 169.4109 15.17027505304544
Epoch (UTC): 19 May 2013 18:19:58
Eccentricity: 0.0097593
inclination: 97.6218°
perigee height: 447 km
apogee height: 582 km
right ascension of ascending node: 206.9849°
argument of perigee: 338.0982°
revolutions per day: 15.17027505
mean anomaly at epoch: 169.4109°
orbit number at epoch: 30454

The dashed part of the orbit path shows where the satellite is in the earth's shadow,  

Developed and maintained by Chris Peat, Heavens-Above GmbH. Please read the updated FAQ before sending e-mail. Imprint. DLR